Location: Baia Mare
(47.6567°N, 23.5850°E)
Time: 14:25:35
(UTC+03:00)

ISS - Pass Details

Date: 09 July 2019
Orbit: 409 x 418 km, 51.6° (Epoch: 21 July)

Event Time Altitude Azimuth Distance (km) Brightness Sun altitude
Exits shadow 01:56:46 18° 98° (E) 1,100 -1.7 -19.7°
Drops below altitude 10° 01:57:57 10° 83° (E) 1,479 -0.8 -19.7°
Sets 02:00:14 0° 70° (ENE) 2,343 0.4 -19.6°
